Tracking 31027 objects as of 19-Jul-2025
HD Live streaming from Space Station
objects crossing your sky now

ONEWEB-0165

Track ONEWEB-0165 now!
10-day predictions
ONEWEB-0165 is classified as:


NORAD ID: 48233
Int'l Code: 2021-031Z
Perigee: 1,211.7 km
Apogee: 1,214.2 km
Inclination: 87.9 °
Period: 109.5 minutes
Semi major axis: 7583 km
RCS: Unknown
Launch date: April 25, 2021
Source: United Kingdom (UK)
Launch site: VOSTOCHNY COSMODROME (VOSTO)
Your satellite tracking list
HAWK-4A
Track 1 satellite(s)




NASA's NSSDC Master Catalog

Two Line Element Set (TLE):
1 48233U 21031Z   25199.42469267  .00000246  00000-0  62906-3 0  9991
2 48233  87.9053 356.1352 0001654  90.8722 269.2597 13.14504954204511
Source of the keplerian elements: AFSPC